Brady, TX

9:17 AM CST on January 17, 2018 (GMT -0600)
Curtis

Weather History for KBBD - March, 2014

Change the Weather History Date:

Saturday, March 22, 2014

  Actual Average (KJCT) Record (KJCT)
Temperature  
Mean Temperature 61 °F -  
Max Temperature 69 °F 68 °F 88 °F (2011)
Min Temperature 53 °F 44 °F 28 °F (2002)
Degree Days  
Heating Degree Days 4    
Growing Degree Days 11 (Base 50)    
Moisture  
Dew Point 49 °F    
Average Humidity 66    
Maximum Humidity 88    
Minimum Humidity 45    
Precipitation  
Precipitation 0.00 in - - ()
Sea Level Pressure  
Sea Level Pressure 29.98 in    
Wind  
Wind Speed 6 mph (North)    
Max Wind Speed 12 mph    
Max Gust Speed -    
Visibility 10 miles    
Events      
Averages and records for this station are not official NWS values.
T = Trace of Precipitation, MM = Missing Value Source: NWS Daily Summary

Daily Weather History Graph

Daily Weather History Graph

Search for Another Location

Airport or City:

Trip Planner

Search our weather history database for the weather conditions in past years. The results will help you decide how hot, cold, wet, or windy it might be!

Date:

Astronomy

Mar. 22, 2014 Rise Set
Actual Time 7:38 AM CDT 7:50 PM CDT
Civil Twilight 7:14 AM CDT 8:14 PM CDT
Nautical Twilight 6:46 AM CDT 8:42 PM CDT
Astronomical Twilight 6:17 AM CDT 9:11 PM CDT
Moon 12:52 AM CDT (3/22) 11:41 AM CDT (3/22)
Length of Visible Light 13h 00m
Length of Day
12h 11m
Waning Gibbous, 65% of the Moon is Illuminated
Mar 22
Waning Gibbous
Mar 23
Last Quarter
Mar 30
New
Apr 7
First Quarter
Apr 15
Full

Hourly Weather History & Observations

Time (CDT) Temp. Dew Point Humidity Pressure Visibility Wind Dir Wind Speed Gust Speed Precip Events Conditions
12:55 AM 62.6 °F 53.6 °F 72% 29.89 in 10.0 mi SE 5.8 mph - N/A   Clear
1:15 AM 62.6 °F 53.6 °F 72% 29.89 in 10.0 mi SSE 6.9 mph - N/A   Clear
1:35 AM 60.8 °F 53.6 °F 77% 29.89 in 10.0 mi ESE 3.5 mph - N/A   Clear
1:55 AM 62.6 °F 53.6 °F 72% 29.89 in 10.0 mi SSE 5.8 mph - N/A   Clear
2:15 AM 59.0 °F 53.6 °F 82% 29.90 in 10.0 mi WNW 3.5 mph - N/A   Clear
2:35 AM 57.2 °F 53.6 °F 88% 29.90 in 10.0 mi Calm Calm - N/A   Clear
2:55 AM 57.2 °F 53.6 °F 88% 29.90 in 10.0 mi Calm Calm - N/A   Clear
3:15 AM 57.2 °F 53.6 °F 88% 29.90 in 10.0 mi Calm Calm - N/A   Clear
3:35 AM 57.2 °F 53.6 °F 88% 29.90 in 10.0 mi Calm Calm - N/A   Clear
3:55 AM 60.8 °F 53.6 °F 77% 29.89 in 10.0 mi Calm Calm - N/A   Clear
4:15 AM 59.0 °F 53.6 °F 82% 29.88 in 10.0 mi East 4.6 mph - N/A   Clear
4:35 AM 59.0 °F 55.4 °F 88% 29.88 in 10.0 mi East 3.5 mph - N/A   Clear
4:55 AM 59.0 °F 55.4 °F 88% 29.89 in 10.0 mi ESE 5.8 mph - N/A   Clear
5:15 AM 59.0 °F 55.4 °F 88% 29.90 in 10.0 mi ESE 3.5 mph - N/A   Scattered Clouds
5:35 AM 59.0 °F 55.4 °F 88% 29.89 in 10.0 mi ESE 5.8 mph - N/A   Overcast
5:55 AM 59.0 °F 55.4 °F 88% 29.91 in 10.0 mi SE 4.6 mph - N/A   Overcast
6:15 AM 60.8 °F 57.2 °F 88% 29.91 in 10.0 mi ESE 3.5 mph - N/A   Overcast
6:35 AM 60.8 °F 55.4 °F 82% 29.93 in 10.0 mi Calm Calm - N/A   Overcast
6:50 AM 59.0 °F 55.4 °F 88% 29.93 in 10.0 mi Calm Calm - N/A   Overcast
7:15 AM 60.8 °F 55.4 °F 82% 29.94 in 10.0 mi WNW 3.5 mph - N/A   Overcast
7:30 AM 60.8 °F 55.4 °F 82% 29.95 in 10.0 mi NW 5.8 mph - N/A   Overcast
7:55 AM 59.0 °F 48.2 °F 67% 29.96 in 10.0 mi NNW 8.1 mph - N/A   Overcast
8:15 AM 57.2 °F 44.6 °F 63% 29.97 in 10.0 mi NNW 8.1 mph - N/A   Overcast
8:35 AM 57.2 °F 46.4 °F 67% 29.98 in 10.0 mi NW 5.8 mph - N/A   Overcast
8:55 AM 57.2 °F 44.6 °F 63% 29.97 in 10.0 mi NNW 5.8 mph - N/A   Scattered Clouds
9:15 AM 57.2 °F 42.8 °F 59% 29.98 in 10.0 mi NNW 8.1 mph - N/A   Clear
9:35 AM 57.2 °F 42.8 °F 59% 29.98 in 10.0 mi NNW 5.8 mph - N/A   Clear
9:50 AM 59.0 °F 42.8 °F 55% 29.99 in 10.0 mi NNW 6.9 mph - N/A   Scattered Clouds
10:15 AM 60.8 °F 42.8 °F 52% 30.00 in 10.0 mi NNW 10.4 mph - N/A   Overcast
10:35 AM 60.8 °F 41.0 °F 48% 30.01 in 10.0 mi NW 11.5 mph - N/A   Overcast
10:55 AM 60.8 °F 41.0 °F 48% 30.02 in 10.0 mi NW 10.4 mph - N/A   Overcast
11:10 AM 60.8 °F 41.0 °F 48% 30.03 in 10.0 mi NNW 11.5 mph - N/A   Overcast
11:30 AM 60.8 °F 39.2 °F 45% 30.03 in 10.0 mi NW 11.5 mph - N/A   Overcast
11:55 AM 60.8 °F 39.2 °F 45% 30.03 in 10.0 mi NNW 9.2 mph - N/A   Overcast
12:15 PM 60.8 °F 39.2 °F 45% 30.03 in 10.0 mi NW 10.4 mph - N/A   Overcast
12:50 PM 62.6 °F 42.8 °F 48% 30.03 in 10.0 mi NW 10.4 mph - N/A   Overcast
1:10 PM 64.4 °F 44.6 °F 49% 30.03 in 10.0 mi NW 9.2 mph - N/A   Overcast
1:40 PM 62.6 °F 46.4 °F 55% 30.01 in 10.0 mi NNW 8.1 mph - N/A   Overcast
1:55 PM 64.4 °F 46.4 °F 52% 30.01 in 10.0 mi NW 11.5 mph - N/A   Overcast
2:15 PM 64.4 °F 46.4 °F 52% 30.00 in 10.0 mi NNW 6.9 mph - N/A   Overcast
2:30 PM 64.4 °F 46.4 °F 52% 30.00 in 10.0 mi NNW 6.9 mph - N/A   Overcast
2:50 PM 64.4 °F 48.2 °F 56% 30.01 in 10.0 mi NNW 6.9 mph - N/A   Overcast
3:10 PM 66.2 °F 48.2 °F 52% 30.00 in 10.0 mi NNW 8.1 mph - N/A   Overcast
3:35 PM 68.0 °F 50.0 °F 52% 29.98 in 10.0 mi North 6.9 mph - N/A   Mostly Cloudy
3:55 PM 69.8 °F 51.8 °F 53% 29.98 in 10.0 mi North 6.9 mph - N/A   Mostly Cloudy
4:20 PM 69.8 °F 51.8 °F 53% 29.98 in 10.0 mi NNW 5.8 mph - N/A   Mostly Cloudy
4:40 PM 68.0 °F 51.8 °F 56% 29.98 in 10.0 mi Calm Calm - N/A   Scattered Clouds
5:00 PM 69.8 °F 53.6 °F 56% 29.98 in 10.0 mi North 3.5 mph - N/A   Mostly Cloudy
5:15 PM 69.8 °F 53.6 °F 56% 29.98 in 10.0 mi NNW 6.9 mph - N/A   Overcast
5:40 PM 69.8 °F 53.6 °F 56% 29.98 in 10.0 mi North 5.8 mph - N/A   Mostly Cloudy
5:55 PM 68.0 °F 51.8 °F 56% 29.97 in 10.0 mi North 8.1 mph - N/A   Scattered Clouds
6:10 PM 69.8 °F 51.8 °F 53% 29.98 in 10.0 mi NW 8.1 mph - N/A   Clear
6:35 PM 68.0 °F 48.2 °F 49% 29.98 in 10.0 mi North 5.8 mph - N/A   Clear
6:55 PM 68.0 °F 48.2 °F 49% 29.99 in 10.0 mi NNW 5.8 mph - N/A   Clear
7:15 PM 66.2 °F 48.2 °F 52% 29.99 in 10.0 mi NE 5.8 mph - N/A   Clear
7:40 PM 64.4 °F 48.2 °F 56% 30.00 in 10.0 mi NE 6.9 mph - N/A   Clear
8:00 PM 62.6 °F 48.2 °F 59% 30.00 in 10.0 mi NE 9.2 mph - N/A   Clear
8:20 PM 60.8 °F 48.2 °F 63% 30.02 in 10.0 mi ENE 6.9 mph - N/A   Clear
8:35 PM 60.8 °F 48.2 °F 63% 30.02 in 10.0 mi NE 6.9 mph - N/A   Clear
8:55 PM 59.0 °F 48.2 °F 67% 30.03 in 10.0 mi NE 6.9 mph - N/A   Clear
9:20 PM 57.2 °F 48.2 °F 72% 30.03 in 10.0 mi ENE 9.2 mph - N/A   Clear
9:35 PM 57.2 °F 48.2 °F 72% 30.04 in 10.0 mi NE 9.2 mph - N/A   Clear
9:50 PM 57.2 °F 46.4 °F 67% 30.05 in 10.0 mi NE 9.2 mph - N/A   Clear
10:10 PM 55.4 °F 46.4 °F 72% 30.05 in 10.0 mi NNE 9.2 mph - N/A   Clear
10:35 PM 55.4 °F 46.4 °F 72% 30.06 in 10.0 mi NNE 10.4 mph - N/A   Clear
10:55 PM 55.4 °F 46.4 °F 72% 30.07 in 10.0 mi NE 9.2 mph - N/A   Clear
11:15 PM 53.6 °F 46.4 °F 77% 30.07 in 10.0 mi NNE 9.2 mph - N/A   Clear
11:35 PM 53.6 °F 44.6 °F 72% 30.09 in 10.0 mi NNE 10.4 mph - N/A   Clear
11:55 PM 53.6 °F 44.6 °F 72% 30.09 in 10.0 mi NNE 10.4 mph - N/A   Clear